Flag for China Weather past 2 weeks in Changchun, China

Now
68 °F

Clear.


Feels Like: 68 °F
Forecast: 52 / 79 °F
Wind: 20 mph from South

Location: Changchun Airport


UV Index: 5 (Moderate)

Visibility: 4 mi


Pressure: 29.95 "Hg

Humidity: 38%

Dew point: 41 °F

Location of ChangchunLocation

Historic Weather in Changchun

°F

Changchun temperature yesterday

Maximum temperature yesterday: 77 °F (at 2:00 PM)
Minimum temperature yesterday: 50 °F (at 1:00 AM)
Average temperature yesterday: 62 °F

Past Weeks' High & Low Weather Summary

 TemperatureHumidityPressure
High77 °F (Apr 14, 1:00 PM)74% (Apr 10, 5:00 AM)30.24 "Hg (Apr 10, 5:00 AM)
Low25 °F (Apr 10, 5:00 AM)8% (Apr 11, 1:00 PM)29.74 "Hg (Apr 23, 4:00 PM)
Average52 °F31%30.01 "Hg
* Reported Apr 9 8:00 AM — Apr 24 8:00 AM, Changchun, Weather by CustomWeather, © 2014

Note: Actual official high and low records may vary slightly from our data, if they occured in-between our weather recording intervals... More about our weather records

Advertising

Historic Weather Conditions — Data for Previous 24 hours

 ConditionsComfort  
Time TempWeatherWind HumidityBarometerVisibility
8:00 AM
Apr 24
64 °FClear.15 mph43%29.95 "Hg4 mi
7:00 AM57 °FSunny.13 mph55%29.95 "Hg10 mi
6:00 AM54 °FSunny.13 mph58%29.95 "Hg10 mi
5:00 AM52 °FSunny.8 mph62%29.95 "Hg10 mi
4:00 AM52 °FPassing clouds.8 mph62%29.92 "HgN/A
3:00 AM54 °FPassing clouds.13 mph58%29.92 "HgN/A
2:00 AM55 °FPassing clouds.13 mph55%29.92 "HgN/A
1:00 AM55 °FPassing clouds.15 mph55%29.95 "HgN/A
12:00 AM55 °FPassing clouds.10 mph55%29.95 "HgN/A
11:00 PM
Apr 23
57 °FPassing clouds.15 mph51%29.92 "HgN/A
10:00 PM57 °FPassing clouds.15 mph51%29.92 "HgN/A
9:00 PM59 °FPassing clouds.20 mph45%29.92 "HgN/A
8:00 PM63 °FPassing clouds.22 mph37%29.89 "HgN/A
7:00 PM66 °FThunderstorms. Partly cloudy.13 mph28%29.83 "HgN/A
6:00 PM66 °FScattered clouds.10 mph28%29.80 "HgN/A
5:00 PM73 °FScattered clouds.8 mph17%29.74 "HgN/A
4:00 PM73 °FScattered clouds.10 mph16%29.74 "HgN/A
3:00 PM72 °FThunderstorms. Broken clouds.6 mph16%29.77 "Hg4 mi
2:00 PM77 °FScattered clouds.15 mph17%29.77 "HgN/A
1:00 PM72 °FScattered clouds.22 mph22%29.80 "HgN/A
12:00 PM75 °FScattered clouds.15 mph16%29.80 "HgN/A
11:00 AM72 °FPassing clouds.17 mph20%29.83 "HgN/A
10:00 AM68 °FScattered clouds.10 mph23%29.83 "HgN/A
Weather by CustomWeather, © 2014

See weather overview